Weather History for LEGE - January, 2014

Change the Weather History Date:

Wednesday, January 22, 2014

  Actual Average Record
Temperature  
Mean Temperature 40 °F -  
Max Temperature 51 °F 56 °F 66 °F (2005)
Min Temperature 29 °F 35 °F 21 °F (2011)
Degree Days  
Heating Degree Days 25    
Moisture  
Dew Point 38 °F    
Average Humidity 93    
Maximum Humidity 100    
Minimum Humidity 66    
Precipitation  
Precipitation 0.12 in 0.07 in - ()
Sea Level Pressure  
Sea Level Pressure 29.88 in    
Wind  
Wind Speed 1 mph ()    
Max Wind Speed 8 mph    
Max Gust Speed -    
Visibility 5.8 miles    
Events Fog , Rain    
Averages and records for this station are not official NWS values.
T = Trace of Precipitation, MM = Missing Value Source: Averaged Metar Reports

Daily Weather History Graph

Daily Weather History Graph

Search for Another Location

Airport or City:

Trip Planner

Search our weather history database for the weather conditions in past years. The results will help you decide how hot, cold, wet, or windy it might be!

Date:

Astronomy

Jan. 22, 2014 Rise Set
Actual Time 8:10 AM CET 5:51 PM CET
Civil Twilight 7:40 AM CET 6:21 PM CET
Nautical Twilight 7:06 AM CET 6:55 PM CET
Astronomical Twilight 6:32 AM CET 7:28 PM CET
Moon No Moon Rise 10:56 AM CET (1/22)
Length of Visible Light 10h 41m
Length of Day
9h 40m
Waning Gibbous, 68% of the Moon is Illuminated
Jan 22
Waning Gibbous
Jan 24
Last Quarter
Jan 30
New
Feb 6
First Quarter
Feb 15
Full

Hourly Weather History & Observations

Time (CET) Temp. Windchill Dew Point Humidity Pressure Visibility Wind Dir Wind Speed Gust Speed Precip Events Conditions
12:00 AM 34 °F - 33 °F 97% 29.91 in - Calm Calm - -  
12:00 AM 33.8 °F - 33.8 °F 100% 29.89 in 6.2 mi Calm Calm - N/A   Partly Cloudy
12:30 AM 33.8 °F - 32.0 °F 93% 29.89 in 6.2 mi Calm Calm - N/A   Partly Cloudy
1:00 AM 32 °F - 32 °F 100% 29.90 in 12 mi Calm Calm - -   Scattered Clouds
1:00 AM 32.0 °F - 32.0 °F 100% 29.89 in 5.6 mi Calm Calm - N/A   Partly Cloudy
1:30 AM 33.8 °F - 33.8 °F 100% 29.89 in 5.6 mi Calm Calm - N/A   Partly Cloudy
2:00 AM 31 °F - 31 °F 97% 29.87 in - NE 2.3 mph - -  
2:00 AM 32.0 °F - 30.2 °F 93% 29.86 in 5.0 mi Variable 1.2 mph - N/A   Partly Cloudy
2:30 AM 32.0 °F - 32.0 °F 100% 29.86 in 5.6 mi Calm Calm - N/A   Partly Cloudy
3:00 AM 31 °F - 31 °F 100% 29.87 in - West 3.5 mph - -  
3:00 AM 32.0 °F - 32.0 °F 100% 29.86 in 5.6 mi West 1.2 mph - N/A   Partly Cloudy
3:30 AM 32.0 °F - 30.2 °F 93% 29.86 in 5.6 mi Variable 1.2 mph - N/A   Partly Cloudy
4:00 AM 30 °F - 30 °F 99% 29.87 in 12 mi Calm Calm - -   Scattered Clouds
4:00 AM 30.2 °F - 30.2 °F 100% 29.83 in 5.6 mi Variable 1.2 mph - N/A   Partly Cloudy
4:30 AM 30.2 °F - 30.2 °F 100% 29.83 in 5.6 mi Variable 1.2 mph - N/A   Partly Cloudy
5:00 AM 31 °F - 31 °F 99% 29.85 in - NNE 2.3 mph - -  
5:00 AM 32.0 °F - 32.0 °F 100% 29.83 in 1.2 mi NNE 1.2 mph - N/A Fog Patches of Fog
5:30 AM 30.2 °F - 30.2 °F 100% 29.83 in 6.2 mi Variable 1.2 mph - N/A   Partly Cloudy
6:00 AM 31 °F - 31 °F 99% 29.84 in - Calm Calm - -  
6:00 AM 32.0 °F - 32.0 °F 100% 29.83 in 6.2 mi Calm Calm - N/A   Partly Cloudy
6:30 AM 30.2 °F - 30.2 °F 100% 29.83 in 6.2 mi Calm Calm - N/A Fog Partly Cloudy
7:00 AM 29 °F - 29 °F 100% 29.85 in 12 mi Calm Calm - -   Scattered Clouds
7:00 AM 30.2 °F - 30.2 °F 100% 29.83 in 6.2 mi Calm Calm - N/A   Partly Cloudy
7:30 AM 30.2 °F - 30.2 °F 100% 29.83 in 6.2 mi NNE 1.2 mph - N/A   Partly Cloudy
8:00 AM 29 °F - 29 °F 100% 29.86 in - Calm Calm - -  
8:00 AM 30.2 °F - 28.4 °F 93% 29.83 in 6.2 mi Calm Calm - N/A   Partly Cloudy
8:30 AM 30.2 °F - 30.2 °F 100% 29.83 in - Calm Calm - N/A   Clear
9:00 AM 32 °F - 32 °F 99% 29.86 in - ESE 1.2 mph - -  
9:00 AM 32.0 °F - 32.0 °F 100% 29.86 in - Variable 1.2 mph - N/A   Clear
9:30 AM 35.6 °F - 35.6 °F 100% 29.86 in - Calm Calm - N/A   Clear
10:00 AM 38 °F - 36 °F 88% 29.87 in 12 mi Calm Calm - -   Scattered Clouds
10:00 AM 37.4 °F - 35.6 °F 93% 29.86 in 6.2 mi Calm Calm - N/A   Partly Cloudy
10:30 AM 39.2 °F - 35.6 °F 87% 29.86 in 6.2 mi Calm Calm - N/A   Partly Cloudy
11:00 AM 42 °F - 40 °F 89% 29.88 in - Calm Calm - -  
11:00 AM 42.8 °F - 39.2 °F 87% 29.86 in 6.2 mi Calm Calm - N/A   Partly Cloudy
11:30 AM 42.8 °F - 39.2 °F 87% 29.86 in 6.2 mi Calm Calm - N/A   Partly Cloudy
12:00 PM 46 °F - 42 °F 82% 29.87 in - NE 2.3 mph - -  
12:00 PM 46.4 °F - 41.0 °F 81% 29.86 in 6.2 mi Variable 1.2 mph - N/A   Partly Cloudy
12:30 PM 48.2 °F - 42.8 °F 82% 29.86 in 6.2 mi Variable 2.3 mph - N/A   Scattered Clouds
1:00 PM 51 °F - 43 °F 66% 29.86 in 12 mi NE 8.1 mph - -   Overcast
1:00 PM 50.0 °F - 42.8 °F 76% 29.86 in 6.2 mi NNE 8.1 mph - N/A   Scattered Clouds
1:30 PM 50.0 °F - 42.8 °F 76% 29.86 in 6.2 mi NNE 6.9 mph - N/A   Scattered Clouds
2:00 PM 50 °F - 43 °F 69% 29.85 in - North 6.9 mph - -  
2:00 PM 50.0 °F - 42.8 °F 76% 29.86 in 6.2 mi North 5.8 mph - N/A   Scattered Clouds
2:30 PM 50.0 °F - 42.8 °F 76% 29.83 in 6.2 mi NNE 5.8 mph - N/A   Mostly Cloudy
3:00 PM 50 °F - 43 °F 71% 29.84 in - NNE 4.6 mph - -  
3:00 PM 50.0 °F - 42.8 °F 76% 29.83 in 6.2 mi NNE 4.6 mph - N/A   Mostly Cloudy
3:30 PM 48.2 °F - 42.8 °F 82% 29.86 in 6.2 mi NNE 3.5 mph - N/A   Mostly Cloudy
4:00 PM 49 °F - 44 °F 75% 29.86 in 9 mi NNE 3.5 mph - -   Overcast
4:00 PM 48.2 °F - 42.8 °F 82% 29.86 in 6.2 mi NNE 2.3 mph - N/A   Mostly Cloudy
4:30 PM 48.2 °F - 42.8 °F 82% 29.86 in 3.1 mi NE 3.5 mph - N/A   Light Drizzle
5:00 PM 47 °F - 45 °F 91% 29.88 in - NNE 3.5 mph - -   Unknown Precipitation
5:00 PM 46.4 °F - 44.6 °F 93% 29.86 in 3.7 mi NNE 2.3 mph - N/A   Light Drizzle
5:08 PM 46.4 °F 45.2 °F 44.6 °F 93% 29.89 in 2.5 mi NE 3.5 mph - N/A Rain Rain
5:30 PM 46.4 °F - 44.6 °F 93% 29.89 in 3.1 mi NE 2.3 mph - N/A Rain Rain
6:00 PM 46 °F - 45 °F 93% 29.89 in - NE 4.6 mph - -   Unknown Precipitation
6:00 PM 46.4 °F 44.3 °F 44.6 °F 93% 29.89 in 3.7 mi NE 4.6 mph - N/A Rain Light Rain
6:30 PM 44.6 °F 43.1 °F 44.6 °F 100% 29.92 in 3.7 mi NNE 3.5 mph - N/A Rain Light Rain
7:00 PM 46 °F - 45 °F 95% 29.92 in 4 mi North 2.3 mph - - Rain Rain
7:00 PM 44.6 °F - 44.6 °F 100% 29.92 in 3.7 mi Variable 1.2 mph - N/A Rain Light Rain
7:30 PM 44.6 °F - 44.6 °F 100% 29.92 in 3.7 mi Variable 1.2 mph - N/A Rain Light Rain
8:00 PM 44.6 °F - 44.6 °F 100% 29.95 in 3.7 mi Variable 1.2 mph - N/A Rain Light Rain
8:30 PM 44.6 °F - 44.6 °F 100% 29.95 in 3.7 mi Variable 1.2 mph - N/A Rain Light Rain
9:00 PM 45 °F - 45 °F 98% 29.95 in - NNW 1.2 mph - -   Unknown Precipitation
9:00 PM 44.6 °F - 44.6 °F 100% 29.95 in 3.7 mi Variable 1.2 mph - N/A   Light Drizzle
9:30 PM 44.6 °F - 44.6 °F 100% 29.95 in 4.3 mi Variable 1.2 mph - N/A   Light Drizzle
10:00 PM 45 °F - 45 °F 98% 29.96 in 5 mi NNW 1.2 mph - -   Overcast
10:00 PM 44.6 °F - 44.6 °F 100% 29.95 in 4.3 mi Variable 1.2 mph - N/A   Light Drizzle
10:30 PM 44.6 °F - 44.6 °F 100% 29.98 in 4.3 mi Variable 1.2 mph - N/A   Mostly Cloudy
11:00 PM 46 °F - 44 °F 92% 29.98 in - NNW 2.3 mph - -   Unknown Precipitation
11:00 PM 44.6 °F - 44.6 °F 100% 29.98 in 4.3 mi NNW 2.3 mph - N/A   Mostly Cloudy
11:30 PM 46.4 °F - 44.6 °F 93% 29.98 in 4.3 mi Variable 2.3 mph - N/A   Mostly Cloudy